Millinocket, ME

8:37 AM EST on January 24, 2017 (GMT -0500)
Millinocket Municipal

Weather History for KMLT - February, 2013

Change the Weather History Date:

Saturday, February 9, 2013

  Actual Average Record
Temperature  
Mean Temperature 12 °F 16 °F  
Max Temperature 16 °F 26 °F 48 °F (1925)
Min Temperature 7 °F 6 °F -25 °F (1918)
Degree Days  
Heating Degree Days 53 49  
Month to date heating degree days 494 447  
Since 1 July heating degree days 4873 5193  
Cooling Degree Days 0 0  
Month to date cooling degree days 0 0  
Year to date cooling degree days 0 0  
Moisture  
Dew Point 3 °F    
Average Humidity 75    
Maximum Humidity 88    
Minimum Humidity 61    
Precipitation  
Precipitation 0.17 in 0.07 in 1.07 in (1958)
Month to date precipitation 0.18 0.54  
Year to date precipitation 1.52 3.47  
Sea Level Pressure  
Sea Level Pressure 29.98 in    
Wind  
Wind Speed 17 mph (NNE)    
Max Wind Speed 28 mph    
Max Gust Speed 44 mph    
Visibility 2 miles    
Events Fog , Snow    
T = Trace of Precipitation, MM = Missing Value Source: NWS Daily Summary

Daily Weather History Graph

Daily Weather History Graph

Search for Another Location

Airport or City:

Trip Planner

Search our weather history database for the weather conditions in past years. The results will help you decide how hot, cold, wet, or windy it might be!

Date:

Astronomy

Feb. 09, 2013 Rise Set
Actual Time 6:45 AM EST 4:53 PM EST
Civil Twilight 6:14 AM EST 5:24 PM EST
Nautical Twilight 5:39 AM EST 5:59 PM EST
Astronomical Twilight 5:04 AM EST 6:33 PM EST
Moon 5:54 AM EST (2/9) 4:33 PM EST (2/9)
Length of Visible Light 11h 09m
Length of Day
10h 07m
Waning Crescent, 0% of the Moon is Illuminated
Feb 9
Waning Crescent
Feb 10
New
Feb 17
First Quarter
Feb 25
Full
Mar 4
Last Quarter

Hourly Weather History & Observations

Time (EST) Temp. Windchill Dew Point Humidity Pressure Visibility Wind Dir Wind Speed Gust Speed Precip Events Conditions
12:20 AM 8.6 °F -5.5 °F 1.4 °F 73% 30.13 in 2.0 mi NE 10.4 mph 18.4 mph 0.00 in Snow Light Snow
12:35 AM 8.6 °F -7.7 °F 1.4 °F 73% 30.12 in 1.8 mi NNE 13.8 mph 19.6 mph 0.00 in Snow Light Snow
12:53 AM 8.1 °F -7.7 °F 1.9 °F 76% 30.15 in 1.2 mi NE 12.7 mph 23.0 mph 0.00 in Snow Light Snow
1:15 AM 8.6 °F -6.3 °F 1.4 °F 73% 30.08 in 1.8 mi NE 11.5 mph 23.0 mph 0.00 in Snow Light Snow
1:39 AM 8.6 °F -7.7 °F 1.4 °F 73% 30.06 in 2.0 mi NNE 13.8 mph 25.3 mph 0.00 in Snow Light Snow
1:53 AM 8.1 °F -7.7 °F -0.0 °F 70% 30.10 in 3.0 mi NNE 12.7 mph 20.7 mph 0.00 in Snow Light Snow
2:03 AM 8.6 °F -10.0 °F -0.4 °F 67% 30.05 in 2.0 mi NNE 18.4 mph 32.2 mph 0.00 in Snow Light Snow
2:13 AM 8.6 °F -7.7 °F -0.4 °F 67% 30.04 in 1.8 mi NE 13.8 mph 24.2 mph 0.00 in Snow Light Snow
2:26 AM 8.6 °F -9.5 °F 1.4 °F 73% 30.04 in 1.2 mi NE 17.3 mph 25.3 mph 0.00 in Snow Light Snow
2:42 AM 8.6 °F -10.0 °F 1.4 °F 73% 30.02 in 1.5 mi NNE 18.4 mph 27.6 mph 0.00 in Snow Light Snow
2:49 AM 8.6 °F -8.3 °F 1.4 °F 73% 30.01 in 1.2 mi NNE 15.0 mph 27.6 mph 0.00 in Snow Light Snow
2:53 AM 8.1 °F -11.2 °F 1.0 °F 73% 30.06 in 1.5 mi NNE 19.6 mph 31.1 mph 0.00 in Snow Light Snow
3:06 AM 8.6 °F -8.9 °F 1.4 °F 73% 30.00 in 1.2 mi NNE 16.1 mph 24.2 mph 0.00 in Snow Light Snow
3:53 AM 8.1 °F -7.0 °F 1.9 °F 76% 30.05 in 1.0 mi NNE 11.5 mph 23.0 mph 0.00 in Snow Light Snow
3:56 AM 8.6 °F -9.5 °F 1.4 °F 73% 30.00 in 0.8 mi NNE 17.3 mph 28.8 mph 0.00 in Snow Light Snow
4:23 AM 8.6 °F -9.5 °F 1.4 °F 73% 29.99 in 1.0 mi NNE 17.3 mph 28.8 mph 0.00 in Snow Light Snow
4:30 AM 8.6 °F -7.0 °F 1.4 °F 73% 29.98 in 0.8 mi NNE 12.7 mph 26.5 mph 0.00 in Snow Light Snow
4:37 AM 8.6 °F -7.7 °F 1.4 °F 73% 29.99 in 1.0 mi NNE 13.8 mph 24.2 mph 0.00 in Snow Light Snow
4:45 AM 8.6 °F -8.3 °F 1.4 °F 73% 29.98 in 0.8 mi NNE 15.0 mph 24.2 mph 0.00 in Snow Light Snow
4:53 AM 8.1 °F -7.7 °F 1.9 °F 76% 30.03 in 1.0 mi NNE 12.7 mph 25.3 mph 0.00 in Snow Light Snow
5:10 AM 8.6 °F -7.0 °F 1.4 °F 73% 29.98 in 0.8 mi NNE 12.7 mph 23.0 mph 0.02 in Snow Light Snow
5:36 AM 8.6 °F -8.9 °F 1.4 °F 73% 29.98 in 0.5 mi NNE 16.1 mph 24.2 mph 0.02 in Snow Snow
5:53 AM 7.0 °F -9.1 °F 1.9 °F 80% 30.02 in 0.5 mi NNE 12.7 mph 25.3 mph 0.03 in Snow Snow
6:20 AM 6.8 °F -10.7 °F 3.2 °F 85% 29.96 in 0.5 mi North 15.0 mph 25.3 mph 0.02 in Fog , Snow Snow
6:28 AM 6.8 °F -11.8 °F 1.4 °F 79% 29.96 in 0.5 mi North 17.3 mph 25.3 mph 0.02 in Snow Snow
6:38 AM 6.8 °F -9.3 °F 3.2 °F 85% 29.95 in 0.5 mi North 12.7 mph 27.6 mph 0.03 in Fog , Snow Snow
6:53 AM 7.0 °F -10.4 °F 3.0 °F 84% 29.99 in 0.5 mi North 15.0 mph 31.1 mph 0.04 in Fog , Snow Snow
7:08 AM 6.8 °F -11.8 °F 3.2 °F 85% 29.95 in 0.5 mi North 17.3 mph 32.2 mph 0.00 in Fog , Snow Snow
7:19 AM 6.8 °F -12.4 °F 3.2 °F 85% 29.95 in 0.5 mi NNE 18.4 mph 34.5 mph 0.01 in Fog , Snow Snow
7:27 AM 8.6 °F -8.9 °F 3.2 °F 79% 29.94 in 0.2 mi North 16.1 mph 34.5 mph 0.01 in Snow Heavy Snow
7:41 AM 8.6 °F -11.9 °F 3.2 °F 79% 29.92 in 0.2 mi North 23.0 mph 33.4 mph 0.02 in Snow Heavy Snow
7:53 AM 8.1 °F -10.2 °F 3.0 °F 80% 29.96 in 0.2 mi NNE 17.3 mph 27.6 mph 0.03 in Snow Heavy Snow
8:24 AM 8.6 °F -9.5 °F 3.2 °F 79% 29.91 in 0.2 mi North 17.3 mph 33.4 mph 0.02 in Snow Heavy Snow
8:48 AM 8.6 °F -11.0 °F 3.2 °F 79% 29.92 in 0.2 mi NNE 20.7 mph 27.6 mph 0.03 in   Haze
8:53 AM 8.1 °F -10.2 °F 3.0 °F 80% 29.96 in 0.2 mi NNE 17.3 mph 32.2 mph 0.03 in   Haze
9:19 AM 8.6 °F -8.9 °F 3.2 °F 79% 29.92 in 0.2 mi NNE 16.1 mph 28.8 mph 0.01 in Fog Light Freezing Fog
9:53 AM 9.0 °F -10.0 °F 3.9 °F 80% 29.96 in 0.2 mi North 19.6 mph 32.2 mph 0.03 in Snow Heavy Snow
10:12 AM 8.6 °F -10.0 °F 3.2 °F 79% 29.91 in 0.5 mi North 18.4 mph 31.1 mph 0.00 in Snow Snow
10:29 AM 10.4 °F -6.0 °F 3.2 °F 73% 29.91 in 0.5 mi North 15.0 mph 31.1 mph 0.00 in Snow Snow
10:45 AM 10.4 °F -9.5 °F 3.2 °F 73% 29.91 in 1.2 mi North 23.0 mph 32.2 mph 0.00 in Snow Light Snow
10:53 AM 10.9 °F -5.9 °F 3.0 °F 70% 29.96 in 1.2 mi North 16.1 mph 34.5 mph 0.00 in Snow Blowing Snow
10:58 AM 10.4 °F -8.6 °F 3.2 °F 73% 29.91 in 2.0 mi North 20.7 mph 33.4 mph N/A Snow Blowing Snow
11:05 AM 12.2 °F -4.8 °F 3.2 °F 67% 29.91 in 1.5 mi North 17.3 mph 32.2 mph 0.00 in Snow Light Snow
11:37 AM 12.2 °F -4.3 °F 3.2 °F 67% 29.90 in 1.2 mi North 16.1 mph 29.9 mph 0.00 in Snow Light Snow
11:45 AM 12.2 °F -7.5 °F 3.2 °F 67% 29.90 in 1.5 mi North 24.2 mph 33.4 mph 0.00 in Snow Light Snow
11:53 AM 12.0 °F -6.0 °F 3.0 °F 67% 29.95 in 1.5 mi North 19.6 mph 33.4 mph 0.00 in Snow Light Snow
12:02 PM 12.2 °F -6.3 °F 3.2 °F 67% 29.91 in 1.2 mi NNE 20.7 mph 33.4 mph 0.00 in Snow Light Snow
12:07 PM 12.2 °F -4.3 °F 3.2 °F 67% 29.91 in 2.0 mi NNE 16.1 mph 28.8 mph 0.00 in Snow Light Snow
12:19 PM 12.2 °F -8.2 °F 3.2 °F 67% 29.91 in 1.2 mi North 26.5 mph 36.8 mph 0.00 in Snow Light Snow
12:53 PM 12.9 °F -4.4 °F 3.9 °F 67% 29.95 in 1.5 mi NNE 18.4 mph 38.0 mph 0.00 in Snow Light Snow
1:01 PM 12.2 °F -6.3 °F 3.2 °F 67% 29.90 in 2.5 mi NNE 20.7 mph 32.2 mph 0.00 in Snow Light Snow
1:13 PM 12.2 °F -5.3 °F 3.2 °F 67% 29.90 in 1.8 mi North 18.4 mph 32.2 mph 0.00 in Snow Light Snow
1:34 PM 12.2 °F -7.9 °F 3.2 °F 67% 29.90 in 1.0 mi North 25.3 mph 38.0 mph 0.00 in Snow Light Snow
1:53 PM 12.9 °F -5.7 °F 3.9 °F 67% 29.95 in 1.2 mi North 21.9 mph 36.8 mph 0.00 in Snow Light Snow
2:00 PM 12.2 °F -5.3 °F 3.2 °F 67% 29.91 in 1.0 mi North 18.4 mph 34.5 mph 0.00 in Snow Light Snow
2:29 PM 14.0 °F -5.1 °F 5.0 °F 67% 29.91 in 0.8 mi North 24.2 mph 38.0 mph 0.01 in Snow Light Snow
2:39 PM 14.0 °F -3.4 °F 6.8 °F 73% 29.91 in 1.0 mi North 19.6 mph 43.7 mph 0.01 in Snow Light Snow
2:53 PM 14.0 °F -2.0 °F 6.1 °F 71% 29.96 in 1.5 mi North 16.1 mph 35.7 mph 0.01 in Snow Light Snow
3:17 PM 14.0 °F -2.5 °F 6.8 °F 73% 29.93 in 1.8 mi North 17.3 mph 29.9 mph 0.00 in Snow Light Snow
3:36 PM 14.0 °F -3.9 °F 6.8 °F 73% 29.93 in 1.2 mi North 20.7 mph 27.6 mph 0.00 in Snow Light Snow
3:53 PM 14.0 °F -4.3 °F 7.0 °F 74% 29.97 in 1.2 mi North 21.9 mph 34.5 mph 0.00 in Snow Light Snow
4:04 PM 15.8 °F -1.9 °F 6.8 °F 68% 29.93 in 1.8 mi North 21.9 mph 40.3 mph 0.00 in Snow Light Snow
4:17 PM 14.0 °F -3.9 °F 6.8 °F 73% 29.94 in 1.0 mi North 20.7 mph 36.8 mph 0.00 in Snow Light Snow
4:37 PM 14.0 °F -3.4 °F 8.6 °F 79% 29.95 in 1.2 mi North 19.6 mph 31.1 mph 0.00 in Snow Light Snow
4:53 PM 14.0 °F -3.4 °F 7.0 °F 74% 30.01 in 1.5 mi North 19.6 mph 29.9 mph 0.00 in Snow Light Snow
5:15 PM 14.0 °F -2.0 °F 6.8 °F 73% 29.98 in 2.0 mi North 16.1 mph 25.3 mph 0.00 in Snow Light Snow
5:25 PM 14.0 °F -0.8 °F 6.8 °F 73% 29.98 in 3.0 mi North 13.8 mph 23.0 mph 0.00 in Snow Light Snow
5:53 PM 15.1 °F -0.6 °F 7.0 °F 70% 30.04 in 3.0 mi North 16.1 mph 26.5 mph 0.00 in Snow Light Snow
6:53 PM 15.1 °F -0.6 °F 6.1 °F 68% 30.05 in 6.0 mi North 16.1 mph 26.5 mph 0.00 in   Overcast
7:53 PM 16.0 °F -0.4 °F 8.1 °F 71% 30.07 in 4.0 mi North 18.4 mph 29.9 mph 0.00 in Snow Light Snow
8:53 PM 16.0 °F 0.1 °F 7.0 °F 68% 30.09 in 5.0 mi North 17.3 mph 31.1 mph 0.00 in Snow Light Snow
9:53 PM 16.0 °F 0.1 °F 6.1 °F 65% 30.09 in 6.0 mi North 17.3 mph 32.2 mph 0.00 in   Overcast
10:53 PM 15.1 °F -0.6 °F 5.0 °F 64% 30.09 in 6.0 mi North 16.1 mph 26.5 mph 0.00 in   Haze
11:53 PM 16.0 °F 0.6 °F 3.9 °F 59% 30.11 in 10.0 mi North 16.1 mph 25.3 mph 0.00 in   Scattered Clouds